Starlink 5472

operational
NORAD ID: 54767 Int'l Des: 2022-175 Owner: SPXS Country: US Constellation: starlink
LEOCIRCULAR

关于 Starlink 5472

正在加载描述...

实时位置

正在加载3D地球...

即将过境

高度历史

Altitude vs Time

uPlot chart will show altitude changes over time

两行轨道根数

1 54767U 22175K 25257.31875969 .00003953 00000-0 26633-3 0 9998
2 54767 53.2156 115.8350 0001511 96.9505 263.1660 15.08836136153293
Epoch: Sep 14, 2025 • Age: 27 hours

当前状态

高度 544.2 km
速度 7.60 km/s
星下点 47.93°N, 6.92°E
发射日期 Dec 17, 2022
运行时间 2.7 years
类型 internet

技术详情

分类 Payload
质量 305.00 kg
干质量 290.00 kg
总质量 305.00 kg
长度 0.20 m
直径 2.80 m
跨度 9.00 m
形状 Box + pan
制造商 SPXS
平台类型 Starlink
阶段状态 In Orbit
所有者/国家 SPXS/US

大型星座

Loading constellations...